STARLINK-1937

Last updated on Tue Nov 24 2020 00:02:02 GMT+0000 (Coordinated Universal Time)

1 46773U 20074AL 20328.58334491 -.01086343 00000-0 -19430-1 0 9997 2 46773 53.0532 13.6103 0001089 80.7859 238.3613 15.52221622 1809

Satellite not in orbit